カタログに戻る

STARLINK-35750

運用中通信VLEO
NORAD 66209·PAYLOAD·🇺🇸 United States

打ち上げ Oct 28, 2025 から Vandenberg Space Force Base

Loading…

次のパス (今後24時間)

TLE

最新Source: CelesTrak SupGP

元期: Sep 15, 2026, 03:55 UTC

1 66209C 25244D   26258.16368056 -.00019513  00000+0 -57672-3 0  2586
2 66209  53.1587  66.4536 0001177  89.2260   9.5853 15.34388671    14

AllMySatでSTARLINK-35750をリアルタイム追跡

Download on the App Store